Location: P�rn�nmaa
(61.1833°N, 23.0000°E)
Time: 19:02:57
(UTC+00:00)

Cosmos 2219 Rocket - Pass Details

Date: 08 December 2019
Orbit: 826 x 848 km, 71.0° (Epoch: 17 January)

Event Time Altitude Azimuth Distance (km) Brightness Sun altitude
Rises 16:37:30 0° 216° (SW) 3,373 6.0 -21.9°
Reaches altitude 10° 16:39:56 10° 215° (SW) 2,446 5.1 -22.2°
Maximum altitude 16:45:33 83° 129° (SE) 853 2.1 -22.8°
Enters shadow 16:47:17 47° 47° (NE) 1,113 2.4 -23.1°
